Weather History for De Queen, AR

Change the Weather History Date:

Friday, January 4, 2013

  Actual Average Record
Temperature  
Mean Temperature 38 °F 42 °F  
Max Temperature 51 °F 53 °F 76 °F (1955)
Min Temperature 25 °F 30 °F 8 °F (1947)
Degree Days  
Heating Degree Days 27 23  
Month to date heating degree days 112 92  
Since 1 July heating degree days 1237 1301  
Cooling Degree Days 0 0  
Month to date cooling degree days 0 0  
Year to date cooling degree days 0 0  
Moisture  
Dew Point 27 °F    
Average Humidity 65    
Maximum Humidity 100    
Minimum Humidity 29    
Precipitation  
Precipitation 0.00 in 0.11 in 2.92 in (1993)
Month to date precipitation T 0.45  
Year to date precipitation T 0.45  
Snow  
Snow 0.00 in - - ()
Month to date snowfall 0.0  
Since 1 July snowfall 4.5  
Snow Depth 0.00 in    
Sea Level Pressure  
Sea Level Pressure 30.43 in    
Wind  
Wind Speed 1 mph (SSE)    
Max Wind Speed 8 mph    
Max Gust Speed 10 mph    
Visibility 10 miles    
Events      
T = Trace of Precipitation, MM = Missing Value Source: NWS Daily Summary

Daily Weather History Graph

Daily Weather History Graph

Search for Another Location

Airport:

Trip Planner

Search our weather history database for the weather conditions in past years. The results will help you decide how hot, cold, wet, or windy it might be!

Date:

Astronomy

Jan. 04, 2013 Rise Set
Actual Time 7:23 AM CST 5:21 PM CST
Civil Twilight 6:56 AM CST 5:49 PM CST
Nautical Twilight 6:25 AM CST 6:20 PM CST
Astronomical Twilight 5:54 AM CST 6:51 PM CST
Moon No Moon Rise 11:27 AM CST (1/4)
Length of Visible Light 10h 53m
Length of Day
9h 58m
Waning Gibbous, 55% of the Moon is Illuminated
Jan 4
Waning Gibbous
Jan 4
Last Quarter
Jan 11
New
Jan 18
First Quarter
Jan 26
Full

Hourly Weather History & Observations

Time (CST) Temp. Windchill Dew Point Humidity Pressure Visibility Wind Dir Wind Speed Gust Speed Precip Events Conditions
12:53 AM 30.9 °F - 28.9 °F 92% 30.45 in 10.0 mi Calm Calm - N/A   Overcast
1:53 AM 32.0 °F - 30.0 °F 92% 30.44 in 10.0 mi Calm Calm - N/A   Overcast
2:53 AM 30.0 °F - 28.0 °F 92% 30.44 in 10.0 mi Calm Calm - N/A   Partly Cloudy
3:53 AM 28.9 °F - 27.0 °F 92% 30.44 in 10.0 mi Calm Calm - N/A   Clear
4:53 AM 27.0 °F - 25.0 °F 92% 30.45 in 5.0 mi Calm Calm - N/A   Clear
5:53 AM 26.1 °F - 25.0 °F 96% 30.48 in 8.0 mi Calm Calm - N/A   Clear
7:53 AM 28.9 °F - 27.0 °F 92% 30.49 in 8.0 mi Calm Calm - N/A   Clear
8:53 AM 30.9 °F - 30.0 °F 96% 30.51 in 9.0 mi Calm Calm - N/A   Clear
9:53 AM 39.0 °F - 30.9 °F 73% 30.53 in 10.0 mi Calm Calm - N/A   Clear
10:53 AM 46.0 °F - 28.0 °F 50% 30.51 in 10.0 mi Calm Calm - N/A   Clear
11:53 AM 48.0 °F - 19.9 °F 33% 30.48 in 10.0 mi ENE 5.8 mph - N/A   Overcast
12:53 PM 50.0 °F - 19.9 °F 31% 30.44 in 10.0 mi SSW 4.6 mph - N/A   Overcast
1:53 PM 51.1 °F - 21.9 °F 32% 30.40 in 10.0 mi Variable 3.5 mph - N/A   Overcast
2:53 PM 50.0 °F - 21.9 °F 33% 30.39 in 10.0 mi Calm Calm - N/A   Overcast
3:53 PM 50.0 °F - 21.9 °F 33% 30.39 in 10.0 mi SSW 4.6 mph - N/A   Overcast
4:53 PM 48.9 °F - 24.1 °F 38% 30.39 in 10.0 mi SSW 3.5 mph - N/A   Overcast
5:53 PM 44.1 °F - 26.1 °F 49% 30.40 in 10.0 mi Calm Calm - N/A   Clear
6:53 PM 37.9 °F - 28.0 °F 68% 30.40 in 10.0 mi Calm Calm - N/A   Clear
7:53 PM 36.0 °F - 28.9 °F 76% 30.41 in 10.0 mi Calm Calm - N/A   Clear
8:53 PM 36.0 °F - 30.9 °F 82% 30.40 in 10.0 mi Calm Calm - N/A   Clear
9:53 PM 36.0 °F 33.3 °F 30.9 °F 82% 30.39 in 10.0 mi NE 3.5 mph - N/A   Clear
10:53 PM 37.0 °F - 32.0 °F 82% 30.39 in 10.0 mi Calm Calm - N/A   Mostly Cloudy
11:53 PM 37.0 °F - 32.0 °F 82% 30.37 in 10.0 mi Calm Calm - N/A   Overcast